SUSat (42730 NORAD) Tracking and Keplerian Element Data

This shows tracking and keplerian element data for the satellite.

Feedback or suggestion? Click here.




ElementValue
Catalog42730
NameSUSat
Epoch Orbit10414
Epoch Day79.94531326
Epoch Year2019
RAAN358.5732
Inclination51.6143
Eccentricity0.0006672
Argument of Perigee231.8651
Mean Anonmoly128.1776
Mean Motion16.44308785
Decay Rate0.10885211
L11 42730U 98067MK 19079.94531326 .10885211 12450-4 35996-3 0 9992
L22 42730 51.6143 358.5732 0006672 231.8651 128.1776 16.44308785104146

Live tracking and technical data element details for SUSat (NORAD 42730). SUSat can be tracked NOW for your location showing map with azimuth and elevation plus other details from your city location.

Track the satellite on the map from your city or location and see movement details for azimuth, elevation, latitude, longitude, range, height, and movement on the map or in text.







IsCatalogInMostPopularTable: catalog: 42730, numindb: 211
Update: records affected: 1



GetName: 42730 SUSat

Hit Count: updated at: Tue, 23 Apr 2019 01:53:01 GMT